| time (UTC) | temp F | wind direction | speed MPH | gust MPH | rain 1hr in | rain 24hr in | rain mn in | humidity % | barometer mb |
| 20260503004024 | 54 | 225 | 0.0 | 2.0 | 0.00 | 0.00 | 0.00 | 53 | 1012.3 |
| 20260503003121 | 55 | 205 | 3.0 | 6.0 | 0.00 | 0.00 | 0.00 | 53 | 1012.3 |
| 20260503002112 | 55 | 176 | 2.0 | 5.0 | 0.00 | 0.00 | 0.00 | 52 | 1012.3 |
| 20260503001123 | 56 | 154 | 4.0 | 7.0 | 0.00 | 0.00 | 0.00 | 52 | 1012.3 |
| 20260503000059 | 56 | 166 | 6.0 | 9.0 | 0.00 | 0.00 | 0.00 | 52 | 1012.4 |
| 20260502235050 | 57 | 157 | 7.0 | 9.0 | 0.00 | 0.00 | 0.00 | 51 | 1012.4 |
| 20260502234108 | 57 | 161 | 7.0 | 10.0 | 0.00 | 0.00 | 0.00 | 50 | 1012.4 |
| 20260502233038 | 57 | 166 | 7.0 | 10.0 | 0.00 | 0.00 | 0.00 | 48 | 1012.5 |
| 20260502232035 | 58 | 170 | 7.0 | 11.0 | 0.00 | 0.00 | 0.00 | 47 | 1012.6 |
| 20260502231026 | 59 | 157 | 7.0 | 11.0 | 0.00 | 0.00 | 0.00 | 46 | 1012.6 |
| 20260502230022 | 59 | 176 | 7.0 | 11.0 | 0.00 | 0.00 | 0.00 | 44 | 1012.8 |
| 20260502225133 | 60 | 164 | 6.0 | 10.0 | 0.00 | 0.00 | 0.00 | 43 | 1012.7 |
| 20260502224109 | 60 | 175 | 7.0 | 11.0 | 0.00 | 0.00 | 0.00 | 43 | 1012.8 |
| 20260502223125 | 60 | 169 | 7.0 | 9.0 | 0.00 | 0.00 | 0.00 | 43 | 1012.8 |
| 20260502222057 | 61 | 168 | 6.0 | 8.0 | 0.00 | 0.00 | 0.00 | 42 | 1012.9 |
| 20260502221047 | 61 | 160 | 7.0 | 9.0 | 0.00 | 0.00 | 0.00 | 41 | 1012.9 |
| 20260502220038 | 61 | 176 | 5.0 | 10.0 | 0.00 | 0.00 | 0.00 | 40 | 1012.9 |
| 20260502215056 | 63 | 182 | 4.0 | 8.0 | 0.00 | 0.00 | 0.00 | 39 | 1013.0 |
| 20260502214026 | 63 | 188 | 4.0 | 7.0 | 0.00 | 0.00 | 0.00 | 37 | 1013.0 |
| 20260502213023 | 64 | 174 | 4.0 | 8.0 | 0.00 | 0.00 | 0.00 | 37 | 1013.1 |
| 20260502212115 | 64 | 207 | 4.0 | 8.0 | 0.00 | 0.00 | 0.00 | 37 | 1013.1 |
| 20260502211130 | 64 | 214 | 4.0 | 7.0 | 0.00 | 0.00 | 0.00 | 37 | 1013.2 |
| 20260502205058 | 63 | 200 | 4.0 | 8.0 | 0.00 | 0.00 | 0.00 | 38 | 1013.2 |
| 20260502204130 | 64 | 176 | 5.0 | 8.0 | 0.00 | 0.00 | 0.00 | 37 | 1013.2 |
| 20260502203106 | 65 | 172 | 4.0 | 7.0 | 0.00 | 0.00 | 0.00 | 35 | 1013.3 |
| 20260502202038 | 65 | 217 | 5.0 | 10.0 | 0.00 | 0.00 | 0.00 | 35 | 1013.3 |
| 20260502201033 | 65 | 170 | 4.0 | 8.0 | 0.00 | 0.00 | 0.00 | 35 | 1013.4 |
| 20260502200024 | 66 | 196 | 4.0 | 6.0 | 0.00 | 0.00 | 0.00 | 34 | 1013.4 |
| 20260502195021 | 67 | 200 | 4.0 | 9.0 | 0.00 | 0.00 | 0.00 | 32 | 1013.4 |
| 20260502194112 | 67 | 185 | 4.0 | 7.0 | 0.00 | 0.00 | 0.00 | 32 | 1013.5 |
| 20260502193150 | 68 | 184 | 3.0 | 8.0 | 0.00 | 0.00 | 0.00 | 32 | 1013.5 |
| 20260502192101 | 68 | 210 | 3.0 | 9.0 | 0.00 | 0.00 | 0.00 | 31 | 1013.5 |
| 20260502191056 | 68 | 167 | 4.0 | 12.0 | 0.00 | 0.00 | 0.00 | 30 | 1013.4 |
| 20260502190048 | 69 | 210 | 4.0 | 7.0 | 0.00 | 0.00 | 0.00 | 30 | 1013.5 |
| 20260502185107 | 69 | 200 | 3.0 | 10.0 | 0.00 | 0.00 | 0.00 | 29 | 1013.3 |
| 20260502184040 | 70 | 175 | 3.0 | 6.0 | 0.00 | 0.00 | 0.00 | 25 | 1013.3 |
| 20260502183025 | 71 | 210 | 3.0 | 7.0 | 0.00 | 0.00 | 0.00 | 24 | 1013.3 |
| 20260502182022 | 71 | 219 | 3.0 | 9.0 | 0.00 | 0.00 | 0.00 | 21 | 1013.2 |
| 20260502181113 | 73 | 222 | 3.0 | 9.0 | 0.00 | 0.00 | 0.00 | 19 | 1013.2 |
| 20260502180111 | 74 | 225 | 2.0 | 8.0 | 0.00 | 0.00 | 0.00 | 22 | 1013.2 |
| 20260502164020 | 0 | 0.0 | 0.0 | 0.00 | 0.00 | 0.00 | 1013.5 | ||
| 20260502163112 | 0 | 0.0 | 0.0 | 0.00 | 0.00 | 0.00 | 1013.7 | ||
| 20260502162128 | 0 | 0.0 | 0.0 | 0.00 | 0.00 | 0.00 | 1013.9 | ||
| 20260502161100 | 0 | 0.0 | 0.0 | 0.00 | 0.00 | 0.00 | 1014.0 | ||
| 20260502152026 | 0 | 0.0 | 0.0 | 0.00 | 0.00 | 0.00 | 1014.8 | ||
| 20260502151022 | 0 | 0.0 | 0.0 | 0.00 | 0.00 | 0.00 | 1014.8 | ||
| 20260502150114 | 0 | 0.0 | 0.0 | 0.00 | 0.00 | 0.00 | 1015.0 | ||
| 20260502123036 | 0 | 0.0 | 0.0 | 0.00 | 0.00 | 0.00 | 1016.9 | ||
| 20260502122053 | 0 | 0.0 | 0.0 | 0.00 | 0.00 | 0.00 | 1017.1 | ||
| 20260502121023 | 0 | 0.0 | 0.0 | 0.00 | 0.00 | 0.00 | 1017.3 | ||
| 20260502115131 | 0 | 0.0 | 0.0 | 0.00 | 0.00 | 0.00 | 1017.5 | ||
| 20260502114108 | 0 | 0.0 | 0.0 | 0.00 | 0.00 | 0.00 | 1017.7 | ||
| 20260502113124 | 0 | 0.0 | 0.0 | 0.00 | 0.00 | 0.00 | 1017.8 | ||
| 20260502112056 | 0 | 0.0 | 0.0 | 0.00 | 0.00 | 0.00 | 1018.0 | ||
| 20260502111046 | 0 | 0.0 | 0.0 | 0.00 | 0.00 | 0.00 | 1018.2 | ||
| 20260502110038 | 0 | 0.0 | 0.0 | 0.00 | 0.00 | 0.00 | 1018.1 | ||
| 20260502105035 | 0 | 0.0 | 0.0 | 0.00 | 0.00 | 0.00 | 1018.2 | ||
| 20260502104025 | 0 | 0.0 | 0.0 | 0.00 | 0.00 | 0.00 | 1018.4 | ||
| 20260502103022 | 0 | 0.0 | 0.0 | 0.00 | 0.00 | 0.00 | 1018.5 | ||
| 20260502102134 | 0 | 0.0 | 0.0 | 0.00 | 0.00 | 0.00 | 1018.6 | ||
| 20260502101110 | 0 | 0.0 | 0.0 | 0.00 | 0.00 | 0.00 | 1018.7 | ||
| 20260502091044 | 0 | 0.0 | 0.0 | 0.00 | 0.00 | 0.00 | 1019.3 | ||
| 20260502071131 | 0 | 0.0 | 0.0 | 0.00 | 0.00 | 0.00 | 1020.0 | ||
| 20260502070107 | 0 | 0.0 | 0.0 | 0.00 | 0.00 | 0.00 | 1020.0 | ||
| 20260502065058 | 0 | 0.0 | 0.0 | 0.00 | 0.00 | 0.00 | 1020.1 | ||
| 20260502064050 | 0 | 0.0 | 0.0 | 0.00 | 0.00 | 0.00 | 1020.1 | ||
| 20260502063105 | 0 | 0.0 | 0.0 | 0.00 | 0.00 | 0.00 | 1020.1 | ||
| 20260502062036 | 0 | 0.0 | 0.0 | 0.00 | 0.00 | 0.00 | 1020.1 | ||
| 20260502061053 | 0 | 0.0 | 0.0 | 0.00 | 0.00 | 0.00 | 1020.2 | ||
| 20260502060023 | 0 | 0.0 | 0.0 | 0.00 | 0.00 | 0.00 | 1020.1 | ||
| 20260502055020 | 0 | 0.0 | 0.0 | 0.00 | 0.00 | 0.00 | 1020.1 | ||
| 20260502054132 | 0 | 0.0 | 0.0 | 0.00 | 0.00 | 0.00 | 1020.1 | ||
| 20260502053108 | 0 | 0.0 | 0.0 | 0.00 | 0.00 | 0.00 | 1020.1 | ||
| 20260502052100 | 0 | 0.0 | 0.0 | 0.00 | 0.00 | 0.00 | 1020.0 | ||
| 20260502051055 | 0 | 0.0 | 0.0 | 0.00 | 0.00 | 0.00 | 1020.0 | ||
| 20260502050047 | 0 | 0.0 | 0.0 | 0.00 | 0.00 | 0.00 | 1020.0 | ||
| 20260502045104 | 0 | 0.0 | 0.0 | 0.00 | 0.00 | 0.00 | 1020.1 | ||
| 20260502044055 | 0 | 0.0 | 0.0 | 0.00 | 0.00 | 0.00 | 1020.0 | ||
| 20260502043044 | 0 | 0.0 | 0.0 | 0.00 | 0.00 | 0.00 | 1020.0 | ||
| 20260502041529 | 51 | 225 | 3.0 | 4.0 | 0.00 | 0.00 | 0.00 | 52 | 1020.0 |
| 20260502040540 | 51 | 173 | 3.0 | 6.0 | 0.00 | 0.00 | 0.00 | 53 | 1020.0 |
| 20260502035611 | 50 | 199 | 4.0 | 7.0 | 0.00 | 0.00 | 0.00 | 55 | 1020.0 |
| 20260502034607 | 49 | 184 | 4.0 | 6.0 | 0.00 | 0.00 | 0.00 | 56 | 1020.0 |
| 20260502033600 | 48 | 190 | 6.0 | 8.0 | 0.00 | 0.00 | 0.00 | 58 | 1020.0 |
| 20260502032556 | 49 | 192 | 5.0 | 6.0 | 0.00 | 0.00 | 0.00 | 56 | 1020.1 |
| 20260502031546 | 49 | 189 | 4.0 | 7.0 | 0.00 | 0.00 | 0.00 | 55 | 1020.0 |
| 20260502030536 | 49 | 180 | 3.0 | 5.0 | 0.00 | 0.00 | 0.00 | 52 | 1020.0 |
| 20260502025533 | 50 | 182 | 3.0 | 4.0 | 0.00 | 0.00 | 0.00 | 50 | 1020.1 |
| 20260502024524 | 51 | 186 | 4.0 | 6.0 | 0.00 | 0.00 | 0.00 | 51 | 1020.1 |
| 20260502023520 | 51 | 220 | 2.0 | 4.0 | 0.00 | 0.00 | 0.00 | 52 | 1020.0 |
| 20260502022610 | 52 | 212 | 1.0 | 4.0 | 0.00 | 0.00 | 0.00 | 49 | 1020.0 |
| 20260502021607 | 52 | 0.0 | 1.0 | 0.00 | 0.00 | 0.00 | 48 | 1020.0 | |
| 20260502020558 | 52 | 315 | 1.0 | 2.0 | 0.00 | 0.00 | 0.00 | 48 | 1020.1 |
| 20260502015549 | 52 | 333 | 1.0 | 2.0 | 0.00 | 0.00 | 0.00 | 49 | 1020.2 |
| 20260502014606 | 52 | 341 | 1.0 | 2.0 | 0.00 | 0.00 | 0.00 | 50 | 1020.2 |
| 20260502013537 | 52 | 345 | 1.0 | 2.0 | 0.00 | 0.00 | 0.00 | 50 | 1020.2 |
| 20260502012554 | 52 | 337 | 1.0 | 2.0 | 0.00 | 0.00 | 0.00 | 52 | 1020.3 |
| 20260502011524 | 52 | 0 | 1.0 | 2.0 | 0.00 | 0.00 | 0.00 | 51 | 1020.3 |
| 20260502010521 | 52 | 348 | 1.0 | 2.0 | 0.00 | 0.00 | 0.00 | 52 | 1020.4 |
| 20260502005612 | 53 | 0 | 2.0 | 3.0 | 0.00 | 0.00 | 0.00 | 52 | 1020.3 |